EN

Hourly Weather Labun

Today, 31 July, Saturday

Time Temperature Precipitation Wind Pressure Humidity
00:00 +16°C° 0 mm 2 mps 752 mmHg 65%
01:00 +15°C° 0 mm 2 mps 752 mmHg 68%
02:00 +15°C° 0 mm 2 mps 752 mmHg 69%
03:00 +15°C° 0 mm 2 mps 752 mmHg 70%
04:00 +15°C° 0 mm 2 mps 752 mmHg 71%
05:00 +17°C° 0 mm 3 mps 752 mmHg 66%
06:00 +19°C° 0 mm 4 mps 752 mmHg 61%
07:00 +21°C° 0 mm 4 mps 752 mmHg 56%
08:00 +23°C° 0 mm 5 mps 751 mmHg 52%
09:00 +26°C° 0 mm 5 mps 751 mmHg 48%
10:00 +28°C° 0 mm 6 mps 751 mmHg 44%
11:00 +27°C° 0 mm 6 mps 751 mmHg 45%
12:00 +27°C° 0 mm 6 mps 750 mmHg 47%
13:00 +27°C° 0 mm 6 mps 750 mmHg 49%
14:00 +28°C° 0 mm 6 mps 750 mmHg 44%
15:00 +28°C° 0 mm 6 mps 750 mmHg 40%
16:00 +29°C° 0 mm 6 mps 750 mmHg 35%
17:00 +27°C° 0 mm 5 mps 750 mmHg 43%
18:00 +25°C° 0 mm 4 mps 750 mmHg 50%
19:00 +21°C° 0 mm 3 mps 750 mmHg 58%
20:00 +21°C° 0 mm 3 mps 751 mmHg 58%
21:00 +20°C° 0 mm 4 mps 751 mmHg 58%
22:00 +19°C° 0 mm 4 mps 751 mmHg 59%
23:00 +18°C° 0 mm 4 mps 752 mmHg 63%

Tomorrow, 1 August, Sunday

Time Temperature Precipitation Wind Pressure Humidity
00:00 +17°C° 0 mm 4 mps 752 mmHg 67%
01:00 +15°C° 0 mm 4 mps 752 mmHg 71%
02:00 +15°C° 0 mm 4 mps 752 mmHg 73%
03:00 +15°C° 0 mm 4 mps 752 mmHg 76%
04:00 +14°C° 0 mm 4 mps 752 mmHg 79%
05:00 +15°C° 0 mm 4 mps 752 mmHg 76%
06:00 +16°C° 0 mm 5 mps 752 mmHg 72%
07:00 +19°C° 0 mm 5 mps 752 mmHg 69%
08:00 +20°C° 0 mm 5 mps 752 mmHg 63%
09:00 +21°C° 0 mm 5 mps 753 mmHg 58%
10:00 +23°C° 0 mm 5 mps 753 mmHg 52%
11:00 +23°C° 0 mm 5 mps 753 mmHg 50%
12:00 +25°C° 0 mm 5 mps 753 mmHg 47%
13:00 +25°C° 0 mm 5 mps 753 mmHg 45%
14:00 +23°C° 0 mm 5 mps 753 mmHg 48%
15:00 +23°C° 0 mm 4 mps 753 mmHg 51%
16:00 +22°C° 0 mm 4 mps 753 mmHg 54%
17:00 +22°C° 0 mm 4 mps 753 mmHg 57%
18:00 +21°C° 0 mm 3 mps 752 mmHg 60%
19:00 +20°C° 0 mm 3 mps 752 mmHg 63%
20:00 +19°C° 0 mm 2 mps 752 mmHg 68%
21:00 +18°C° 0 mm 2 mps 752 mmHg 72%
22:00 +17°C° 0 mm 2 mps 752 mmHg 77%
23:00 +18°C° 0 mm 1 mps 752 mmHg 80%

Day after tomorrow, 2 August, Monday

Time Temperature Precipitation Wind Pressure Humidity
00:00 +16°C° 0 mm 1 mps 752 mmHg 84%
01:00 +15°C° 0 mm 1 mps 752 mmHg 88%
02:00 +15°C° 0 mm 1 mps 752 mmHg 88%
03:00 +15°C° 0 mm 1 mps 752 mmHg 89%
04:00 +15°C° 0 mm 2 mps 752 mmHg 90%
05:00 +16°C° 0 mm 2 mps 752 mmHg 84%
06:00 +17°C° 0 mm 2 mps 752 mmHg 77%
07:00 +19°C° 0 mm 3 mps 752 mmHg 71%
08:00 +20°C° 0.2 mm 3 mps 752 mmHg 66%
09:00 +21°C° 0.2 mm 4 mps 752 mmHg 62%
10:00 +22°C° 0.2 mm 4 mps 753 mmHg 57%
11:00 +22°C° 0.6 mm 4 mps 753 mmHg 59%
12:00 +22°C° 0.6 mm 5 mps 753 mmHg 60%
13:00 +22°C° 0.6 mm 5 mps 753 mmHg 62%
14:00 +22°C° 0.3 mm 5 mps 753 mmHg 61%
15:00 +21°C° 0.3 mm 5 mps 754 mmHg 60%
16:00 +21°C° 0.3 mm 5 mps 754 mmHg 59%
17:00 +20°C° 0 mm 4 mps 754 mmHg 60%
18:00 +19°C° 0 mm 3 mps 754 mmHg 60%
19:00 +19°C° 0 mm 3 mps 754 mmHg 60%
20:00 +17°C° 0 mm 3 mps 754 mmHg 65%
21:00 +16°C° 0 mm 3 mps 755 mmHg 70%
22:00 +13°C° 0 mm 3 mps 755 mmHg 75%
23:00 +13°C° 0 mm 3 mps 755 mmHg 77%

3 August, Tuesday

Time Temperature Precipitation Wind Pressure Humidity
00:00 +13°C° 0 mm 3 mps 755 mmHg 79%
01:00 +12°C° 0 mm 3 mps 756 mmHg 80%
02:00 +12°C° 0 mm 3 mps 756 mmHg 83%
03:00 +12°C° 0 mm 3 mps 756 mmHg 85%
04:00 +12°C° 0 mm 3 mps 756 mmHg 87%
05:00 +13°C° 0 mm 3 mps 756 mmHg 82%
06:00 +15°C° 0 mm 4 mps 757 mmHg 77%
07:00 +18°C° 0 mm 4 mps 757 mmHg 72%
08:00 +19°C° 0.1 mm 4 mps 757 mmHg 66%
09:00 +21°C° 0.1 mm 4 mps 757 mmHg 59%
10:00 +22°C° 0.1 mm 4 mps 757 mmHg 53%
11:00 +23°C° 0.3 mm 4 mps 757 mmHg 49%
12:00 +23°C° 0.3 mm 4 mps 757 mmHg 45%
13:00 +25°C° 0.3 mm 3 mps 756 mmHg 41%
14:00 +25°C° 0 mm 3 mps 756 mmHg 40%
15:00 +25°C° 0 mm 3 mps 756 mmHg 40%
16:00 +25°C° 0 mm 3 mps 756 mmHg 40%
17:00 +24°C° 0 mm 3 mps 756 mmHg 47%
18:00 +21°C° 0 mm 2 mps 757 mmHg 54%
19:00 +20°C° 0 mm 2 mps 757 mmHg 62%
20:00 +19°C° 0 mm 2 mps 757 mmHg 67%
21:00 +18°C° 0 mm 2 mps 757 mmHg 72%
22:00 +17°C° 0 mm 2 mps 757 mmHg 77%
23:00 +17°C° 0 mm 2 mps 757 mmHg 78%

4 August, Wednesday

Time Temperature Precipitation Wind Pressure Humidity
00:00 +16°C° 0 mm 2 mps 757 mmHg 79%
01:00 +16°C° 0 mm 2 mps 757 mmHg 80%
02:00 +16°C° 0 mm 2 mps 757 mmHg 78%
03:00 +17°C° 0 mm 2 mps 756 mmHg 75%
04:00 +17°C° 0 mm 2 mps 756 mmHg 72%
05:00 +16°C° 1.2 mm 2 mps 756 mmHg 80%
06:00 +16°C° 1.2 mm 2 mps 756 mmHg 87%
07:00 +15°C° 1.2 mm 2 mps 756 mmHg 95%
08:00 +16°C° 1.2 mm 2 mps 756 mmHg 94%
09:00 +16°C° 1.2 mm 3 mps 756 mmHg 94%
10:00 +16°C° 1.2 mm 3 mps 756 mmHg 93%
11:00 +17°C° 0.4 mm 3 mps 756 mmHg 90%
12:00 +17°C° 0.4 mm 3 mps 756 mmHg 86%
13:00 +18°C° 0.4 mm 3 mps 756 mmHg 83%
14:00 +19°C° 0 mm 3 mps 755 mmHg 77%
15:00 +20°C° 0 mm 3 mps 755 mmHg 70%
16:00 +21°C° 0 mm 3 mps 755 mmHg 64%
17:00 +20°C° 0 mm 3 mps 755 mmHg 70%
18:00 +19°C° 0 mm 2 mps 755 mmHg 75%
19:00 +18°C° 0 mm 2 mps 755 mmHg 80%
20:00 +17°C° 0 mm 2 mps 755 mmHg 85%
21:00 +16°C° 0 mm 2 mps 755 mmHg 89%
22:00 +15°C° 0 mm 2 mps 755 mmHg 94%
23:00 +15°C° 0 mm 2 mps 755 mmHg 94%

5 August, Thursday

Time Temperature Precipitation Wind Pressure Humidity
00:00 +14°C° 0 mm 1 mps 754 mmHg 94%
01:00 +14°C° 0 mm 1 mps 754 mmHg 94%
02:00 +14°C° 0 mm 1 mps 754 mmHg 94%
03:00 +14°C° 0 mm 1 mps 754 mmHg 93%
04:00 +14°C° 0 mm 1 mps 754 mmHg 93%
05:00 +15°C° 0 mm 1 mps 754 mmHg 88%
06:00 +16°C° 0 mm 1 mps 753 mmHg 83%
07:00 +19°C° 0 mm 1 mps 753 mmHg 78%
08:00 +18°C° 0 mm 0 mps 753 mmHg 74%
09:00 +19°C° 0 mm 0 mps 753 mmHg 69%
10:00 +20°C° 0 mm 0 mps 753 mmHg 65%
11:00 +20°C° 0.5 mm 0 mps 753 mmHg 65%
12:00 +22°C° 0.5 mm 1 mps 753 mmHg 65%
13:00 +22°C° 0.5 mm 1 mps 752 mmHg 65%
14:00 +22°C° 0.3 mm 1 mps 752 mmHg 66%
15:00 +22°C° 0.3 mm 1 mps 752 mmHg 68%
16:00 +21°C° 0.3 mm 2 mps 752 mmHg 69%
17:00 +21°C° 0 mm 1 mps 751 mmHg 71%
18:00 +21°C° 0 mm 1 mps 751 mmHg 73%
19:00 +20°C° 0 mm 1 mps 751 mmHg 76%
20:00 +19°C° 0 mm 1 mps 751 mmHg 79%
21:00 +17°C° 0 mm 2 mps 751 mmHg 82%
22:00 +16°C° 0 mm 2 mps 751 mmHg 85%
23:00 +16°C° 0 mm 2 mps 751 mmHg 86%
Show more